This is the latest recevied weather packets stored in our database for station/object DH0DM-13. If no packets are shown the sender has not sent any weather packets the latest 10 day(s).
| Time | Temp. | Humidity | Pressure | Rain* | Wind** | Luminosity | Snow |
|---|---|---|---|---|---|---|---|
| 1787522049 | 11.11° C | 79% | 995.6 hPa | 0 mm | 0 m/s | - | - |
| 1787521448 | 11.67° C | 77% | 995.5 hPa | 0 mm | 0 m/s | - | - |
| 1787520847 | 12.22° C | 73% | 995.6 hPa | 0 mm | 0 m/s | - | - |
| 1787520246 | 12.78° C | 71% | 995.5 hPa | 0 mm | 0 m/s | - | - |
| 1787519645 | 13.33° C | 69% | 995.5 hPa | 0 mm | 1.34 m/s, 303° | - | - |
| 1787519044 | 13.33° C | 66% | 995.3 hPa | 0 mm | 3.13 m/s, 252° | - | - |
| 1787518443 | 13.33° C | 67% | 995.5 hPa | 0 mm | 1.34 m/s, 259° | - | - |
| 1787517843 | 13.89° C | 65% | 995.5 hPa | 0 mm | 0.89 m/s, 241° | - | - |
| 1787517242 | 13.89° C | 65% | 995.4 hPa | 0 mm | 0.89 m/s, 230° | - | - |
| 1787516641 | 14.44° C | 64% | 995.7 hPa | 0 mm | 0.89 m/s, 227° | - | - |
| 1787516040 | 14.44° C | 63% | 995.5 hPa | 0 mm | 3.13 m/s, 235° | - | - |
| 1787515439 | 14.44° C | 62% | 995.4 hPa | 0 mm | 2.68 m/s, 239° | - | - |
| 1787514838 | 14.44° C | 62% | 995.6 hPa | 0 mm | 4.47 m/s, 247° | - | - |
| 1787514237 | 14.44° C | 63% | 995.6 hPa | 0 mm | 2.24 m/s, 238° | - | - |
| 1787513636 | 14.44° C | 63% | 995.4 hPa | 0 mm | 1.34 m/s, 231° | - | - |
| 1787513035 | 14.44° C | 63% | 995.7 hPa | 0 mm | 0 m/s | - | - |
| 1787512434 | 13.89° C | 65% | 995.6 hPa | 0 mm | 2.24 m/s, 243° | - | - |
| 1787511834 | 14.44° C | 64% | 995.5 hPa | 0 mm | 1.34 m/s, 231° | - | - |
| 1787511233 | 14.44° C | 63% | 995.6 hPa | 0 mm | 2.24 m/s, 244° | - | - |
| 1787510632 | 14.44° C | 64% | 995.2 hPa | 0 mm | 0.89 m/s, 238° | - | - |
| 1787510031 | 14.44° C | 63% | 995.2 hPa | 0 mm | 0 m/s | - | - |
| 1787509430 | 15° C | 61% | 995.2 hPa | 0 mm | 0 m/s | - | - |
| 1787508829 | 15.56° C | 59% | 995.2 hPa | 0 mm | 0.45 m/s, 220° | - | - |
| 1787508228 | 15.56° C | 57% | 995.3 hPa | 0 mm | 3.13 m/s, 238° | - | - |
| 1787507627 | 16.11° C | 55% | 995.2 hPa | 0 mm | 6.71 m/s, 276° | - | - |
* Rain since midnight (hover to see other rain measurements)
** Current wind speed in m/s (hover to see current wind gust speed)